Location: Praha
(50.0830°N, 14.4670°E)
Time: 16:02:53
(UTC+02:00)

ISS - Pass Details

Date: 14 May 2022
Orbit: 414 x 421 km, 51.6° (Epoch: 28 May)

Event Time Altitude Azimuth Distance (km) Brightness Sun altitude
Rises 04:07:47 0° 286° (WNW) 2,355 -0.2 -9.7°
Reaches altitude 10° 04:10:04 10° 273° (W) 1,488 -1.4 -9.4°
Maximum altitude 04:12:55 26° 215° (SW) 848 -2.8 -9.1°
Drops below altitude 10° 04:15:46 10° 156° (SSE) 1,481 -1.2 -8.7°
Sets 04:18:02 0° 143° (SE) 2,340 0.0 -8.5°
